STARLINK-32510, 62040

Orbit data source: Space-Track

STARLINK-32510, 62040 is a payload satellite owned by SpaceX/Seattle (US) in LEO that was launched on Thu, 21 Nov 2024 UTC via an FALCON 9 launch vehicle from the Air Force Eastern Test Range (AFETR). Payload-class satellites include a variety of spacecraft equipped with specific instruments for various scientific and technological missions. These include communications satellites like Starlink; space stations such as the ISS; scientific satellites like the Hubble; Earth observation satellites from companies like Planet Labs, Umbra, and HawkEye 360; GPS; miniature CubeSats for education and research; and military/defense satellites.

Loading next visibility...
Identifier
62040, 2024-216J
Orbit
LEO
Last TLE update
18 hours ago
Origin
Manufacturer
SpaceX/Seattle
Mission
Operational Commercial Communications
Bus & Motor
STARLINK V2M, Unknown motor
Mass
730 kg wet, ~700 kg dry
Launch date (UTC)
2024-11-21 (6 months ago)
Launch vehicle
FALCON 9
Launch site
Air Force Eastern Test Range (AFETR)
Object type
Payload
Rocket body
Debris
Shape & HBR
Box + 2 Pan, 29 m
Radar Cross Section
36.964 m², Large (>1 m²)

Expand to show TLE details & history

TLE from 18 hours ago
0 STARLINK-32510
1 62040U 24216J   25128.49907866 -.00000176  00000-0  31359-5 0  9995
2 62040  43.0009 187.4091 0001460 252.6756 107.3936 15.27573825 27119
Epoch: 2025-05-08T11:58Z
Definitive object data (Epoch: 2025-05-08T11:58:40.396Z)
Latitude
-0.00001°
Longitude
141.17208°
Altitude
483.143 km
Speed
7.625 km/s
True Right ascension
12h 29m 38s
True Declination
0° 00' 00"
Sunlit
Object was in full shadow at TLE epoch
Visualization TLE readout
Latitude
-21.09641°
Longitude
-18.81474°
Altitude
487.164 km
Speed
7.623 km/s
Apparent Right ascension
02h 02m 10s
Apparent Declination
-30° 02' 51"
Sunlit
Object is in daylight
Visualization observer readout
Local Sidereal Time
14:18:30
Azimuth
19.936° NNE
Elevation
-79.583°
Doppler factor
1
Orbital elements
Apogee altitude
486.015 km
Perigee altitude
484.011 km
Semi-major axis
6,863.15 km
Eccentricity
0.000146
Inclination
43.0009°
RAAN
187.4091°
Arg. of periapsis
252.6756°
True anomaly
107.40956°
Mean anomaly
107.3936°
Eccentric anomaly
107.40158°
Mean motion
3.81731 °/min
BSTAR
0.0000031359
Orbital period
94.31 mins
Loading maneuver chart data...
Loading SW <> Apogee altitude chart data...
Loading historical data...
Loading historical data...
Loading historical data...
Loading historical data...
Loading historical data...
Loading historical data...
Loading historical data...

STARLINK-32510 Visibility forecast

Observer location: undefined°, undefined°

Span
Click to sort rows by Start time (UTC) header in descending order
Start Az.
Max El. time (UTC)
Max El. Az.
Max El.
End time (UTC)
End Az.
6 mins2025-05-09 07:00:43.374Z210.817° SW2025-05-09 07:03:43.374Z141.509° SSE29.031°2025-05-09 07:06:43.374Z85.14° E
6 mins2025-05-09 08:39:43.374Z264.005° W2025-05-09 08:42:43.374Z32.747° NE41.672°2025-05-09 08:45:43.374Z70.263° E
5 mins2025-05-09 10:19:43.374Z298.422° NW2025-05-09 10:21:43.374Z18.154° NNE38.178°2025-05-09 10:24:43.374Z80.307° E
5 mins2025-05-09 11:58:43.374Z282.197° WNW2025-05-09 12:00:43.374Z178.35° S43.804°2025-05-09 12:03:43.374Z117.405° SE
|